Tracking 29892 objects as of 21-Nov-2024
HD Live streaming from Space Station
objects crossing your sky now

KSLV-II R/B

Track KSLV-II R/B now!
10-day predictions


NORAD ID: 52896
Int'l Code: 2022-065C
Perigee: 674.6 km
Apogee: 698.3 km
Inclination: 98.2 °
Period: 98.3 minutes
Semi major axis: 7057 km
RCS: Unknown
Launch date: June 21, 2022
Source: South Korea (SKOR)
Launch site: Naro Space Center, South Korea (NSC)

Note: This is a ROCKET BODY
Your satellite tracking list
EXPRESS 4A
Track 1 satellite(s)




NASA's NSSDC Master Catalog

Two Line Element Set (TLE):
1 52896U 22065C   24325.89667680  .00001125  00000-0  22193-3 0  9990
2 52896  98.1907 114.5805 0016784 189.5954 170.4930 14.64316317129212
Source of the keplerian elements: AFSPC